K9APR Weather Reports


time (UTC)temp
C
wind
direction
speed
KPH
gust
KPH
rain 1hr
cm
rain 24hr
cm
rain mn
cm
humidity
%
barometer
mb
20260504214120 20 157 8.0 14.5 0.00 0.00 0.00 62 1005.4
20260504213221 20 193 11.3 16.1 0.00 0.00 0.00 63 1005.8
20260504212321 19 153 11.3 19.3 0.00 0.00 0.00 64 1005.7
20260504211421 18 146 9.7 12.9 0.00 0.00 0.00 67 1005.8
20260504210521 18 162 4.8 8.0 0.00 0.00 0.00 67 1005.9
20260504205621 18 163 8.0 9.7 0.00 0.00 0.00 66 1005.9
20260504204721 19 217 11.3 14.5 0.00 0.00 0.00 62 1006.5
20260504203822 20 219 9.7 14.5 0.00 0.00 0.00 59 1006.4
20260504202920 19 247 11.3 20.9 0.00 0.00 0.00 59 1005.8
20260504202020 20 272 14.5 32.2 0.00 0.00 0.00 58 1006.4
20260504201122 21 283 11.3 22.5 0.00 0.00 0.00 56 1006.4
20260504200220 20 260 8.0 12.9 0.00 0.00 0.00 55 1006.3
20260504195320 20 256 12.9 14.5 0.00 0.00 0.00 55 1006.8
20260504194422 20 271 11.3 22.5 0.00 0.00 0.00 58 1007.3
20260504193521 20 254 14.5 32.2 0.00 0.00 0.00 60 1007.4
20260504192621 20 252 12.9 12.9 0.00 0.00 0.00 60 1007.4
20260504191722 20 228 14.5 20.9 0.00 0.00 0.00 61 1007.4
20260504190820 20 202 14.5 25.7 0.00 0.00 0.00 60 1007.6
20260504185920 20 195 12.9 32.2 0.00 0.00 0.00 60 1007.6
20260504185020 20 214 14.5 25.7 0.00 0.00 0.00 59 1007.4
20260504184217 20 222 12.9 16.1 0.00 0.00 0.00 60 1007.2
20260504182321 20 193 16.1 24.1 0.00 0.00 0.00 61 1007.5
20260504181420 20 180 19.3 33.8 0.00 0.00 0.00 61 1007.3
20260504180521 20 212 9.7 12.9 0.00 0.00 0.00 62 1007.6
20260504175619 20 221 12.9 19.3 0.00 0.00 0.00 61 1007.6
20260504174721 20 211 14.5 32.2 0.00 0.00 0.00 60 1007.7
20260504173820 20 242 14.5 25.7 0.00 0.00 0.00 60 1007.5
20260504172920 21 209 19.3 32.2 0.00 0.00 0.00 59 1007.4
20260504172021 21 259 12.9 22.5 0.00 0.00 0.00 61 1007.4
20260504171120 20 218 16.1 25.7 0.00 0.00 0.00 59 1007.2
20260504170223 21 207 14.5 20.9 0.00 0.00 0.00 59 1007.6
20260504150521 18 258 8.0 14.5 0.00 0.00 0.00 66 1008.2
20260504141121 16 215 4.8 11.3 0.00 0.00 0.00 70 1008.6
20260504140220 16 212 8.0 8.0 0.00 0.00 0.00 69 1008.8
20260504130819 13 183 8.0 14.5 0.00 0.00 0.00 72 1008.7
20260504110221 10 153 4.8 4.8 0.00 0.00 0.00 71 1009.1
20260504081121 11 153 8.0 8.0 0.00 0.00 0.00 68 1010.2
20260504080220 10 141 4.8 9.7 0.00 0.00 0.00 68 1010.4
20260504050221 11 142 8.0 12.9 0.00 0.00 0.00 64 1012.0
20260504045320 11 136 4.8 11.3 0.00 0.00 0.00 64 1012.0
20260504044421 11 158 9.7 11.3 0.00 0.00 0.00 64 1012.0
20260504043520 11 159 4.8 8.0 0.00 0.00 0.00 64 1012.1
20260504042620 11 138 3.2 8.0 0.00 0.00 0.00 63 1012.2
20260504041720 11 173 9.7 19.3 0.00 0.00 0.00 63 1012.3
20260504040819 12 130 3.2 4.8 0.00 0.00 0.00 64 1012.4
20260504035920 12 147 8.0 11.3 0.00 0.00 0.00 63 1012.5
20260504035022 12 132 4.8 8.0 0.00 0.00 0.00 62 1012.6
20260504034120 12 168 1.6 4.8 0.00 0.00 0.00 62 1012.7
20260504033220 12 133 4.8 9.7 0.00 0.00 0.00 61 1012.8
20260504032320 12 164 4.8 8.0 0.00 0.00 0.00 61 1012.9
20260504031420 12 144 9.7 12.9 0.00 0.00 0.00 60 1012.9
20260504030520 12 140 8.0 9.7 0.00 0.00 0.00 60 1012.8
20260504025620 12 145 4.8 8.0 0.00 0.00 0.00 59 1013.0
20260504024719 12 168 4.8 14.5 0.00 0.00 0.00 59 1013.0
20260504023821 12 152 4.8 4.8 0.00 0.00 0.00 58 1013.1
20260504022921 13 156 4.8 9.7 0.00 0.00 0.00 57 1013.2
20260504022027 13 161 3.2 8.0 0.00 0.00 0.00 57 1013.2
20260504022020 13 161 3.2 8.0 0.00 0.00 0.00 57 1013.2
20260504021119 13 155 3.2 4.8 0.00 0.00 0.00 55 1013.3
20260504020219 13 135 3.2 4.8 0.00 0.00 0.00 55 1013.3
20260504015319 13 157 1.6 4.8 0.00 0.00 0.00 55 1013.2
20260504014420 13 149 9.7 9.7 0.00 0.00 0.00 54 1013.3
20260504013519 13 164 4.8 11.3 0.00 0.00 0.00 53 1013.3
20260504012620 13 187 3.2 4.8 0.00 0.00 0.00 53 1013.2
20260504011720 13 162 4.8 11.3 0.00 0.00 0.00 53 1013.4
20260504010819 13 157 3.2 4.8 0.00 0.00 0.00 53 1013.3
20260504005920 13 160 3.2 4.8 0.00 0.00 0.00 53 1013.2
20260504005019 13 160 1.6 4.8 0.00 0.00 0.00 53 1013.3
20260504003219 13 168 3.2 3.2 0.00 0.00 0.00 52 1013.3
20260504002321 13 234 3.2 4.8 0.00 0.00 0.00 52 1013.2
20260504001421 14 215 4.8 8.0 0.00 0.00 0.00 51 1013.3
20260504000520 14 219 4.8 4.8 0.00 0.00 0.00 50 1013.1
20260503235619 14 167 4.8 8.0 0.00 0.00 0.00 49 1013.2
20260503234720 14 201 9.7 16.1 0.00 0.00 0.00 48 1013.1
20260503233819 14 186 9.7 8.0 0.00 0.00 0.00 48 1013.0
20260503232920 14 174 4.8 9.7 0.00 0.00 0.00 48 1013.1
20260503232019 14 150 11.3 19.3 0.00 0.00 0.00 47 1013.2
20260503231120 14 151 12.9 14.5 0.00 0.00 0.00 47 1013.1
20260503230220 14 217 11.3 19.3 0.00 0.00 0.00 47 1013.3
20260503225319 14 203 8.0 11.3 0.00 0.00 0.00 49 1013.4
20260503224420 14 207 9.7 14.5 0.00 0.00 0.00 49 1013.4
20260503223520 14 154 4.8 12.9 0.00 0.00 0.00 51 1013.6
20260503222620 14 181 12.9 14.5 0.00 0.00 0.00 51 1013.8
20260503221720 13 172 14.5 22.5 0.00 0.00 0.00 51 1014.1
20260503215921 12 93 3.2 9.7 0.00 0.00 0.00 66 1014.3
20260503215603 12 100 1.6 4.8 0.00 0.00 0.00 68 1014.5
20260503214705 12 108 0.0 1.6 0.00 0.00 0.00 67 1014.6